FW7539 Weather Reports


time (UTC)temp
F
wind
direction
speed
knots
gust
knots
rain 1hr
in
rain 24hr
in
rain mn
in
humidity
%
barometer
mb
20260509044520 56 3 0.9 3.5 0.01 0.01 0.01 86 1010.5
20260509044020 56 6 0.9 3.5 0.00 0.00 0.00 86 1010.6
20260509043520 56 11 0.0 1.7 0.00 0.00 0.00 85 1010.7
20260509042959 56 5 0.0 1.7 0.00 0.00 0.00 85 1010.8
20260509042459 57 7 0.9 1.7 0.00 0.00 0.00 85 1010.8
20260509041959 57 8 0.0 1.7 0.00 0.00 0.00 85 1010.8
20260509041520 57 7 0.0 1.7 0.00 0.00 0.00 84 1010.8
20260509040959 57 5 0.0 1.7 0.00 0.00 0.00 84 1010.8
20260509040459 57 5 0.0 1.7 0.00 0.00 0.00 84 1010.8
20260509035958 57 5 0.9 1.7 0.00 0.00 0.00 84 1010.8
20260509035459 57 12 0.9 1.7 0.00 0.00 0.00 83 1010.8
20260509035020 57 24 0.0 1.7 0.00 0.00 0.00 83 1010.8
20260509034459 57 31 0.0 1.7 0.00 0.00 0.00 83 1010.8
20260509033959 57 32 0.0 1.7 0.00 0.00 0.00 83 1010.8
20260509033459 57 23 0.9 2.6 0.00 0.00 0.00 82 1010.9
20260509032959 57 12 0.9 2.6 0.00 0.00 0.00 82 1011.0
20260509032459 57 2 0.9 4.3 0.00 0.00 0.00 82 1011.1
20260509031959 57 354 0.9 4.3 0.00 0.00 0.00 82 1011.1
20260509031459 57 360 0.9 5.2 0.00 0.00 0.00 81 1011.2
20260509030959 57 9 0.9 5.2 0.00 0.00 0.00 81 1011.2
20260509030459 57 3 0.9 2.6 0.00 0.00 0.00 81 1011.2
20260509025959 58 346 0.9 2.6 0.00 0.00 0.00 81 1011.2
20260509025459 58 356 1.7 7.8 0.00 0.00 0.00 80 1011.2
20260509024959 58 4 2.6 7.8 0.00 0.00 0.00 79 1011.3
20260509024459 58 5 1.7 6.1 0.00 0.00 0.00 79 1011.3
20260509023959 58 5 1.7 7.8 0.00 0.00 0.00 79 1011.4
20260509023459 58 359 1.7 7.8 0.00 0.00 0.00 78 1011.4
20260509022958 58 333 1.7 7.0 0.00 0.00 0.00 78 1011.4
20260509022459 59 324 1.7 5.2 0.00 0.00 0.00 77 1011.3
20260509021959 59 331 0.9 5.2 0.00 0.00 0.00 76 1011.4
20260509021459 60 322 0.9 2.6 0.00 0.00 0.00 75 1011.2
20260509020959 60 323 0.0 2.6 0.00 0.00 0.00 74 1011.0
20260509020520 60 308 0.0 0.9 0.00 0.00 0.00 73 1010.9
20260509015959 60 308 0.0 0.9 0.00 0.00 0.00 73 1010.7
20260509015459 60 309 0.0 0.9 0.00 0.00 0.00 74 1010.6
20260509014959 61 309 0.0 0.9 0.00 0.00 0.00 71 1010.6
20260509014459 61 309 0.0 0.9 0.00 0.00 0.00 69 1010.5
20260509013959 61 309 0.0 0.9 0.00 0.00 0.00 68 1010.5
20260509013520 62 309 0.0 1.7 0.00 0.00 0.00 68 1010.5
20260509012959 62 307 0.9 1.7 0.00 0.00 0.00 66 1010.5
20260509012459 62 246 0.9 3.5 0.00 0.00 0.00 63 1010.6
20260509011959 62 205 1.7 9.6 0.00 0.00 0.00 60 1010.6
20260509011459 62 205 1.7 9.6 0.00 0.00 0.00 62 1010.7
20260509010959 61 239 0.9 7.0 0.00 0.00 0.00 62 1010.7
20260509010459 62 289 0.0 1.7 0.00 0.00 0.00 66 1010.8
20260509005959 62 289 0.0 1.7 0.00 0.00 0.00 65 1010.6
20260509005500 63 289 0.0 0.9 0.00 0.00 0.00 62 1010.5
20260509004959 63 289 0.0 0.9 0.00 0.00 0.00 61 1010.5
20260509004459 63 289 0.0 0.9 0.00 0.00 0.00 60 1010.4
20260509003959 63 289 0.0 0.9 0.00 0.00 0.00 58 1010.3
20260509003500 63 289 0.0 0.9 0.00 0.00 0.00 56 1010.2
20260509002959 64 289 0.0 0.9 0.00 0.00 0.00 56 1010.1
20260509002459 64 289 0.0 0.9 0.00 0.00 0.00 56 1010.1
20260509001959 64 289 0.0 0.9 0.00 0.00 0.00 55 1010.1
20260509001459 64 289 0.0 0.9 0.00 0.00 0.00 54 1010.1
20260509000959 64 289 0.0 0.9 0.00 0.00 0.00 54 1010.2
20260509000459 65 289 0.0 0.9 0.00 0.00 0.00 53 1010.4
20260509000020 65 277 0.0 1.7 0.00 0.00 0.00 54 1010.5
20260508235459 65 265 0.0 1.7 0.00 0.00 0.00 57 1010.3
20260508235000 65 236 0.0 0.9 0.00 0.00 0.00 54 1010.2
20260508234459 65 236 0.0 1.7 0.00 0.00 0.00 55 1010.2
20260508233959 65 236 0.0 1.7 0.00 0.00 0.00 53 1010.1
20260508233459 66 236 0.0 1.7 0.00 0.00 0.00 53 1010.1
20260508233020 66 236 0.0 1.7 0.00 0.00 0.00 52 1010.0
20260508232459 66 236 0.0 1.7 0.00 0.00 0.00 55 1010.1
20260508232020 66 236 0.0 2.6 0.00 0.00 0.00 51 1010.1
20260508231459 66 236 0.0 2.6 0.00 0.00 0.00 51 1010.3
20260508230959 66 235 0.9 2.6 0.00 0.00 0.00 50 1010.3
20260508230520 66 233 0.0 2.6 0.00 0.00 0.00 51 1010.2
20260508230020 66 231 0.0 1.7 0.00 0.00 0.00 51 1010.1
20260508225459 67 231 0.0 1.7 0.00 0.00 0.00 49 1010.1
20260508224959 67 231 0.0 1.7 0.00 0.00 0.00 52 1010.1
20260508224459 67 241 0.0 1.7 0.00 0.00 0.00 49 1010.1
20260508223959 67 241 0.9 6.1 0.00 0.00 0.00 47 1009.9
20260508223459 68 238 1.7 6.1 0.00 0.00 0.00 46 1010.0
20260508222959 68 221 0.9 6.1 0.00 0.00 0.00 46 1010.0
20260508222459 68 210 0.9 7.0 0.00 0.00 0.00 47 1010.0
20260508222020 68 218 0.9 7.0 0.00 0.00 0.00 45 1009.9
20260508221459 68 187 0.9 5.2 0.00 0.00 0.00 46 1010.0
20260508221000 68 199 0.9 5.2 0.00 0.00 0.00 45 1010.0
20260508220459 68 249 0.9 4.3 0.00 0.00 0.00 45 1009.9
20260508215959 68 193 1.7 6.1 0.00 0.00 0.00 45 1009.9
20260508215459 68 152 1.7 7.0 0.00 0.00 0.00 45 1009.9
20260508214959 68 186 1.7 7.8 0.00 0.00 0.00 46 1009.9
20260508214500 68 217 2.6 7.8 0.00 0.00 0.00 43 1009.8
20260508213959 68 196 1.7 7.0 0.00 0.00 0.00 44 1009.8
20260508213500 68 196 1.7 7.0 0.00 0.00 0.00 43 1010.0
20260508212959 68 222 1.7 4.3 0.00 0.00 0.00 43 1010.1
20260508212459 68 207 1.7 7.0 0.00 0.00 0.00 45 1010.1
20260508211959 68 194 1.7 7.0 0.00 0.00 0.00 44 1010.1
20260508211459 68 191 1.7 7.0 0.00 0.00 0.00 43 1010.2
20260508210959 68 187 2.6 7.0 0.00 0.00 0.00 45 1010.2
20260508210521 68 185 1.7 6.1 0.00 0.00 0.00 43 1010.2
20260508205959 68 166 1.7 7.0 0.00 0.00 0.00 43 1010.4
20260508205459 68 152 2.6 7.0 0.00 0.00 0.00 42 1010.6
20260508204959 68 171 0.9 6.1 0.00 0.00 0.00 44 1010.7
20260508204459 68 200 0.9 3.5 0.00 0.00 0.00 46 1010.8
20260508204021 68 166 1.7 7.0 0.00 0.00 0.00 44 1010.9
20260508203520 68 175 1.7 7.0 0.00 0.00 0.00 43 1010.8
20260508202959 68 211 0.9 6.1 0.00 0.00 0.00 43 1010.9
20260508202500 68 236 1.7 3.5 0.00 0.00 0.00 43 1011.1
20260508201959 68 227 1.7 7.0 0.00 0.00 0.00 42 1011.2
20260508201520 68 173 0.9 7.0 0.00 0.00 0.00 42 1011.2
20260508201020 68 153 1.7 4.3 0.00 0.00 0.00 42 1011.3
20260508200459 68 211 1.7 10.4 0.00 0.00 0.00 44 1011.4
20260508195959 68 219 1.7 7.0 0.00 0.00 0.00 44 1011.4
20260508195500 68 202 1.7 6.1 0.00 0.00 0.00 44 1011.3
20260508194959 68 223 1.7 5.2 0.00 0.00 0.00 44 1011.4
20260508194520 68 244 1.7 5.2 0.00 0.00 0.00 43 1011.4
20260508193959 68 240 1.7 4.3 0.00 0.00 0.00 42 1011.5
20260508193500 68 224 2.6 7.0 0.00 0.00 0.00 41 1011.5
20260508192959 68 217 2.6 8.7 0.00 0.00 0.00 41 1011.6
20260508192520 68 230 2.6 8.7 0.00 0.00 0.00 42 1011.6
20260508192020 69 223 1.7 8.7 0.00 0.00 0.00 42 1011.5
20260508191500 69 222 1.7 7.0 0.00 0.00 0.00 41 1011.6
20260508190959 69 174 1.7 8.7 0.00 0.00 0.00 43 1011.8
20260508190459 70 158 1.7 8.7 0.00 0.00 0.00 41 1011.7
20260508190000 70 209 1.7 7.0 0.00 0.00 0.00 43 1011.9
20260508185500 70 243 2.6 7.8 0.00 0.00 0.00 40 1011.9
20260508185021 70 227 2.6 7.8 0.00 0.00 0.00 41 1012.1
20260508184520 70 201 2.6 6.1 0.00 0.00 0.00 42 1012.1
20260508184000 70 204 2.6 7.0 0.00 0.00 0.00 40 1012.1
20260508183500 70 207 2.6 9.6 0.00 0.00 0.00 40 1012.2
20260508182959 70 202 2.6 9.6 0.00 0.00 0.00 41 1012.3
20260508182459 69 230 2.6 10.4 0.00 0.00 0.00 43 1012.3
20260508181959 69 246 3.5 10.4 0.00 0.00 0.00 39 1012.7
20260508181500 69 236 3.5 10.4 0.00 0.00 0.00 42 1012.8
20260508180959 69 210 2.6 7.0 0.00 0.00 0.00 44 1012.8
20260508180459 69 218 2.6 6.1 0.00 0.00 0.00 44 1012.8
20260508180000 69 232 2.6 8.7 0.00 0.00 0.00 42 1012.9
20260508175459 70 217 2.6 8.7 0.00 0.00 0.00 44 1012.9
20260508175020 70 213 2.6 8.7 0.00 0.00 0.00 45 1013.1
20260508174459 69 178 2.6 8.7 0.00 0.00 0.00 46 1013.1
20260508174000 69 156 1.7 7.8 0.00 0.00 0.00 43 1013.2
20260508173459 68 190 1.7 7.0 0.00 0.00 0.00 46 1013.3
20260508173021 68 214 2.6 7.8 0.00 0.00 0.00 46 1013.3
20260508172500 68 246 3.5 7.8 0.00 0.00 0.00 44 1013.5
20260508172000 68 241 2.6 7.8 0.00 0.00 0.00 45 1013.5
20260508171459 68 221 3.5 9.6 0.00 0.00 0.00 44 1013.7
20260508170959 68 193 3.5 9.6 0.00 0.00 0.00 45 1013.8
20260508170459 68 183 2.6 8.7 0.00 0.00 0.00 47 1013.8
20260508170000 68 195 2.6 7.8 0.00 0.00 0.00 45 1013.9
20260508165459 68 197 2.6 6.1 0.00 0.00 0.00 45 1014.0
20260508164959 68 173 3.5 11.3 0.00 0.00 0.00 44 1014.2
20260508164500 68 169 3.5 11.3 0.00 0.00 0.00 45 1014.3
20260508164020 68 188 2.6 10.4 0.00 0.00 0.00 46 1014.4
20260508163459 68 174 3.5 12.2 0.00 0.00 0.00 48 1014.4
20260508162959 67 160 3.5 12.2 0.00 0.00 0.00 48 1014.5
20260508162459 68 162 3.5 10.4 0.00 0.00 0.00 47 1014.5
20260508161959 67 175 3.5 9.6 0.00 0.00 0.00 46 1014.7
20260508161459 67 195 2.6 9.6 0.00 0.00 0.00 47 1014.7
20260508161021 67 218 2.6 9.6 0.00 0.00 0.00 48 1014.7
20260508160459 66 255 3.5 9.6 0.00 0.00 0.00 47 1014.8
20260508160000 66 240 3.5 11.3 0.00 0.00 0.00 47 1014.8
20260508155500 66 192 2.6 11.3 0.00 0.00 0.00 47 1014.9
20260508154959 66 178 2.6 9.6 0.00 0.00 0.00 51 1015.0
20260508154500 65 215 3.5 13.9 0.00 0.00 0.00 51 1015.0
20260508154000 65 202 3.5 13.9 0.00 0.00 0.00 52 1015.1
20260508153520 65 182 2.6 10.4 0.00 0.00 0.00 50 1015.2
20260508153021 64 209 3.5 8.7 0.00 0.00 0.00 50 1015.3
20260508152459 64 190 3.5 10.4 0.00 0.00 0.00 49 1015.3
20260508152000 64 171 3.5 9.6 0.00 0.00 0.00 51 1015.4
20260508151459 64 204 2.6 9.6 0.00 0.00 0.00 51 1015.4
20260508151000 64 224 2.6 13.9 0.00 0.00 0.00 52 1015.5
20260508150500 64 233 2.6 13.9 0.00 0.00 0.00 51 1015.5
20260508145959 63 222 1.7 7.8 0.00 0.00 0.00 52 1015.5
20260508145500 62 230 2.6 9.6 0.00 0.00 0.00 55 1015.4
20260508144959 62 228 3.5 9.6 0.00 0.00 0.00 51 1015.5
20260508144459 62 205 2.6 7.8 0.00 0.00 0.00 51 1015.6
20260508144000 61 213 2.6 7.8 0.00 0.00 0.00 54 1015.6
20260508143520 61 220 2.6 11.3 0.00 0.00 0.00 52 1015.6
20260508143000 60 226 2.6 11.3 0.00 0.00 0.00 54 1015.6
20260508142459 60 225 2.6 9.6 0.00 0.00 0.00 56 1015.7
20260508142000 60 207 2.6 9.6 0.00 0.00 0.00 53 1015.8
20260508141459 59 218 2.6 9.6 0.00 0.00 0.00 54 1015.9
20260508141000 59 219 3.5 8.7 0.00 0.00 0.00 54 1015.9
20260508140459 59 229 2.6 8.7 0.00 0.00 0.00 54 1015.9
20260508135959 58 233 2.6 8.7 0.00 0.00 0.00 55 1015.9
20260508135500 58 228 2.6 8.7 0.00 0.00 0.00 56 1016.1
20260508134959 58 238 2.6 8.7 0.00 0.00 0.00 56 1016.0
20260508134459 57 222 2.6 11.3 0.00 0.00 0.00 56 1016.0
20260508134020 57 207 2.6 11.3 0.00 0.00 0.00 54 1016.0
20260508133500 57 216 2.6 12.2 0.00 0.00 0.00 54 1016.0
20260508133000 57 224 1.7 12.2 0.00 0.00 0.00 54 1016.0
20260508132459 57 214 1.7 6.1 0.00 0.00 0.00 57 1015.9
20260508132000 57 212 2.6 7.8 0.00 0.00 0.00 56 1016.0
20260508131520 56 201 2.6 7.8 0.00 0.00 0.00 56 1016.0
20260508131000 56 206 2.6 9.6 0.00 0.00 0.00 57 1016.0
20260508130459 56 224 2.6 9.6 0.00 0.00 0.00 57 1015.9
20260508130000 55 223 1.7 6.1 0.00 0.00 0.00 58 1016.0
20260508125459 55 217 2.6 6.1 0.00 0.00 0.00 58 1016.1
20260508124959 54 188 1.7 9.6 0.00 0.00 0.00 58 1015.9
20260508124500 54 171 1.7 9.6 0.00 0.00 0.00 59 1015.9
20260508124000 54 185 1.7 6.1 0.00 0.00 0.00 59 1015.9
20260508123500 53 198 1.7 6.1 0.00 0.00 0.00 59 1015.9
20260508123000 53 200 1.7 9.6 0.00 0.00 0.00 62 1015.8
20260508122459 52 198 1.7 9.6 0.00 0.00 0.00 60 1015.7
20260508122000 52 219 0.9 3.5 0.00 0.00 0.00 63 1015.8
20260508121459 52 211 0.9 3.5 0.00 0.00 0.00 62 1015.8
20260508121000 51 219 0.9 5.2 0.00 0.00 0.00 63 1015.8
20260508120459 51 229 1.7 5.2 0.00 0.00 0.00 64 1015.8
20260508120000 50 220 0.9 4.3 0.00 0.00 0.00 65 1015.8
20260508115459 50 226 0.9 1.7 0.00 0.00 0.00 66 1015.7
20260508115000 49 233 0.9 2.6 0.00 0.00 0.00 67 1015.7
20260508114459 49 220 0.0 2.6 0.00 0.00 0.00 66 1015.7
20260508114000 49 154 0.0 0.9 0.00 0.00 0.00 66 1015.7
20260508113500 49 155 0.0 1.7 0.00 0.00 0.00 66 1015.6
20260508113020 50 237 0.9 3.5 0.00 0.00 0.00 65 1015.6
20260508112500 50 266 0.9 3.5 0.00 0.00 0.00 64 1015.5
20260508112000 50 262 0.9 2.6 0.00 0.00 0.00 64 1015.4
20260508111459 50 229 0.9 2.6 0.00 0.00 0.00 63 1015.5
20260508111000 50 226 0.9 3.5 0.00 0.00 0.00 64 1015.4
20260508110500 50 234 0.9 3.5 0.00 0.00 0.00 64 1015.3
20260508105959 50 242 0.9 5.2 0.00 0.00 0.00 65 1015.3
20260508105500 50 244 0.9 5.2 0.00 0.00 0.00 64 1015.2
20260508105021 50 256 0.9 4.3 0.00 0.00 0.00 65 1015.2
20260508104500 49 253 0.0 4.3 0.00 0.00 0.00 64 1015.2
20260508103959 49 248 0.9 3.5 0.00 0.00 0.00 65 1015.3
20260508103500 49 239 0.9 3.5 0.00 0.00 0.00 65 1015.4
20260508103021 49 227 0.0 3.5 0.00 0.00 0.00 66 1015.3
20260508102521 49 220 0.9 3.5 0.00 0.00 0.00 67 1015.3
20260508102000 49 222 0.9 1.7 0.00 0.00 0.00 67 1015.2
20260508101459 49 232 0.0 1.7 0.00 0.00 0.00 67 1015.2
20260508101000 49 251 0.0 1.7 0.00 0.00 0.00 68 1015.3
20260508100500 49 253 0.9 2.6 0.00 0.00 0.00 66 1015.3
20260508095959 49 245 0.9 2.6 0.00 0.00 0.00 67 1015.3
20260508095500 48 249 0.0 1.7 0.00 0.00 0.00 68 1015.3
20260508095000 48 255 0.0 1.7 0.00 0.00 0.00 67 1015.3
20260508094500 48 250 0.0 1.7 0.00 0.00 0.00 68 1015.3
20260508094000 48 246 0.9 3.5 0.00 0.00 0.00 67 1015.3
20260508093500 48 243 0.9 3.5 0.00 0.00 0.00 68 1015.3
20260508092959 48 236 0.9 3.5 0.00 0.00 0.00 68 1015.3
20260508092459 48 235 0.9 3.5 0.00 0.00 0.00 68 1015.3
20260508091959 47 239 0.0 1.7 0.00 0.00 0.00 69 1015.2
20260508091459 47 238 0.0 1.7 0.00 0.00 0.00 69 1015.3
20260508091021 47 242 0.0 1.7 0.00 0.00 0.00 70 1015.3
20260508090521 47 247 0.9 2.6 0.00 0.00 0.00 70 1015.4
20260508085959 46 258 0.0 2.6 0.00 0.00 0.00 71 1015.4
20260508085500 46 277 0.0 1.7 0.00 0.00 0.00 72 1015.4
20260508085021 45 289 0.0 1.7 0.00 0.00 0.00 74 1015.4
20260508084500 45 290 0.0 1.7 0.00 0.00 0.00 74 1015.3
20260508083959 44 290 0.0 0.9 0.00 0.00 0.00 75 1015.2
20260508083500 44 290 0.0 0.9 0.00 0.00 0.00 76 1015.2
20260508083000 44 290 0.0 0.9 0.00 0.00 0.00 76 1015.3
20260508082500 44 290 0.0 0.9 0.00 0.00 0.00 75 1015.3
20260508081959 45 290 0.0 0.9 0.00 0.00 0.00 75 1015.2
20260508081459 45 290 0.0 0.9 0.00 0.00 0.00 75 1015.3
20260508080959 45 290 0.0 0.9 0.00 0.00 0.00 75 1015.2
20260508080459 45 290 0.0 1.7 0.00 0.00 0.00 74 1015.3
20260508080021 45 290 0.0 1.7 0.00 0.00 0.00 75 1015.3
20260508075521 45 290 0.0 0.9 0.00 0.00 0.00 75 1015.2
20260508074959 45 289 0.0 0.9 0.00 0.00 0.00 74 1015.3
20260508074501 45 280 0.0 1.7 0.00 0.00 0.00 74 1015.3
20260508074000 45 276 0.0 1.7 0.00 0.00 0.00 73 1015.3
20260508073521 45 277 0.0 0.9 0.00 0.00 0.00 73 1015.2
20260508072959 45 277 0.0 0.9 0.00 0.00 0.00 73 1015.2
20260508072500 46 277 0.0 0.9 0.00 0.00 0.00 71 1015.2
20260508072021 46 277 0.0 0.9 0.00 0.00 0.00 71 1015.2
20260508071500 46 277 0.0 0.9 0.00 0.00 0.00 72 1015.4
20260508071020 46 277 0.0 0.9 0.00 0.00 0.00 71 1015.4
20260508070500 46 277 0.0 0.9 0.00 0.00 0.00 71 1015.4
20260508070000 46 277 0.0 0.9 0.00 0.00 0.00 70 1015.5
20260508065521 46 277 0.0 0.9 0.00 0.00 0.00 70 1015.5
20260508065000 47 278 0.0 0.9 0.00 0.00 0.00 70 1015.5
20260508064500 47 278 0.0 1.7 0.00 0.00 0.00 68 1015.5
20260508064000 47 278 0.0 1.7 0.00 0.00 0.00 68 1015.6
20260508063500 47 278 0.0 0.9 0.00 0.00 0.00 68 1015.7
20260508063000 47 278 0.0 0.9 0.00 0.00 0.00 68 1015.8
20260508062500 47 278 0.0 0.9 0.00 0.00 0.00 67 1015.8
20260508062021 47 284 0.0 1.7 0.00 0.00 0.00 68 1015.9
20260508061500 47 288 0.0 1.7 0.00 0.00 0.00 66 1016.0
20260508060959 47 290 0.0 1.7 0.00 0.00 0.00 67 1016.0
20260508060500 47 290 0.0 0.9 0.00 0.00 0.00 67 1016.0
20260508060000 47 290 0.0 0.9 0.00 0.00 0.00 67 1016.0
20260508055500 47 290 0.0 1.7 0.00 0.00 0.00 66 1016.0
20260508055000 47 290 0.0 1.7 0.00 0.00 0.00 66 1016.0
20260508054521 48 290 0.0 1.7 0.00 0.00 0.00 65 1015.9
20260508053959 48 291 0.0 0.9 0.00 0.00 0.00 64 1015.9
20260508053500 48 286 0.0 2.6 0.00 0.00 0.00 64 1015.9
20260508053000 48 249 0.0 2.6 0.00 0.00 0.00 65 1016.0
20260508052500 48 229 0.0 2.6 0.00 0.00 0.00 64 1016.0
20260508052000 48 221 0.0 1.7 0.00 0.00 0.00 65 1016.0
20260508051521 48 221 0.0 0.9 0.00 0.00 0.00 67 1016.0
20260508051000 48 204 0.0 1.7 0.00 0.00 0.00 66 1015.9
20260508050500 48 199 0.0 1.7 0.00 0.00 0.00 66 1015.9
20260508050000 49 194 0.0 0.9 0.00 0.00 0.00 66 1015.9
20260508045500 49 194 0.0 1.7 0.00 0.00 0.00 65 1015.8
20260508045000 49 194 0.0 1.7 0.00 0.00 0.00 64 1015.7